Wind_Speed
24 23 23 23 24 22 22 22 21 19 17 16 15 14 13 11 9 8 7 6 5 3 3 3 4 4 5 5 5 5 4 5 5 5 5 5 5 4 3 2 3 3 3 2 3 3 3 4 3
23 22 22 22 23 23 23 23 22 20 18 17 15 14 14 12 10 8 7 6 5 3 2 2 4 4 5 5 5 5 5 5 4 4 5 4 4 3 3 2 3 3 2 2 2 3 3 3 3
22 22 22 22 23 24 24 24 22 21 19 18 17 15 14 12 11 9 8 7 5 4 3 3 3 4 4 4 5 4 5 4 4 4 4 4 3 3 3 3 2 3 2 2 2 2 2 2 2
22 22 22 23 24 24 24 24 23 22 21 19 18 16 15 13 11 9 9 7 5 4 4 4 4 4 4 4 4 5 5 4 4 4 4 3 3 3 3 2 2 3 2 2 1 1 1 1 1
20 21 22 23 24 24 25 24 24 22 21 20 19 17 15 13 12 10 10 8 7 5 5 5 5 4 4 4 4 5 5 5 4 4 3 3 2 2 2 2 2 2 2 2 1 1 1 1 1
20 21 22 23 24 24 25 25 24 23 21 20 19 18 16 15 13 12 10 9 8 7 7 6 5 4 4 4 4 4 5 5 4 3 3 2 3 2 2 2 2 1 1 2 2 2 2 2 1
20 21 23 23 24 24 24 25 25 23 22 20 19 18 17 16 14 12 11 10 9 8 7 6 5 4 4 3 3 3 4 4 3 3 3 2 2 2 2 2 2 1 1 2 2 2 2 2 2
19 20 22 23 24 24 24 25 24 23 22 21 20 19 18 16 15 13 12 11 10 9 8 7 5 4 3 3 3 3 2 3 3 2 2 2 2 2 2 2 2 2 1 2 2 2 2 2 2
17 19 20 22 24 23 24 25 24 23 22 22 21 20 19 17 16 15 13 12 11 10 9 8 6 5 3 3 3 3 3 3 3 3 3 2 2 2 2 2 2 2 2 2 2 2 3 2 3
15 17 19 20 22 22 23 24 24 23 23 22 22 21 20 18 17 16 15 13 12 11 10 9 7 5 4 4 3 3 3 3 2 2 3 2 2 2 2 2 2 2 2 2 2 3 3 3 3
13 15 16 18 20 21 22 23 23 23 23 22 21 21 20 19 18 17 16 15 13 12 11 10 8 7 5 5 4 3 2 2 2 2 2 2 2 2 2 2 2 2 2 2 3 4 4 3 3
11 13 14 16 18 19 21 22 22 23 23 22 22 21 20 19 19 18 17 16 15 13 12 11 10 8 7 6 4 2 2 2 2 2 2 2 1 1 3 3 3 2 3 3 3 3 3 3 3
9 10 12 14 15 17 20 20 21 21 22 22 21 20 20 20 19 18 17 17 16 14 13 12 11 9 8 7 6 3 1 2 2 2 2 2 2 2 2 3 3 4 3 3 4 4 3 3 4
6 8 9 11 12 15 18 19 20 20 20 20 20 19 19 19 19 18 18 17 16 15 14 14 12 11 10 9 8 5 3 1 1 2 2 2 2 2 3 3 4 3 4 4 4 4 4 4 5
4 6 7 8 9 12 15 17 18 18 18 18 19 18 18 18 18 18 17 17 17 16 15 15 14 12 10 9 8 7 4 3 1 1 2 2 3 3 3 4 4 4 4 5 5 5 5 5 6
3 3 3 4 7 9 11 14 15 16 16 17 17 17 17 17 17 17 17 17 16 16 15 15 14 13 11 10 9 8 6 4 2 1 1 3 3 3 4 5 5 5 4 5 6 7 6 6 6
6 3 1 2 3 5 8 10 11 13 14 14 15 16 16 16 16 16 16 16 16 15 15 15 14 13 12 10 9 8 7 5 3 2 1 2 3 4 5 6 6 6 5 5 6 7 7 8 8
9 6 4 2 1 2 4 6 8 10 11 12 13 14 15 16 16 15 15 15 15 15 14 14 14 13 12 11 10 9 7 6 5 3 2 1 2 3 4 6 6 6 6 5 6 7 8 8 8
12 9 7 5 4 3 2 3 5 6 8 10 11 12 13 14 15 15 14 14 14 14 14 14 14 13 13 12 10 10 8 7 6 5 3 2 2 2 3 5 6 6 6 6 6 7 7 8 9
15 12 9 8 7 6 4 3 3 4 6 8 10 10 11 12 13 13 13 13 14 14 13 13 13 13 13 12 11 10 9 8 7 6 4 4 3 2 2 2 4 6 7 7 7 8 8 9 9
18 15 13 12 10 9 7 5 4 4 5 6 8 9 9 10 11 11 11 12 12 13 13 13 13 12 12 12 12 11 10 9 8 7 6 5 3 2 2 3 3 4 5 7 8 9 9 10 11
21 18 17 16 14 12 11 9 7 5 5 6 7 8 8 8 9 10 10 10 11 12 13 13 13 12 12 12 12 11 10 9 8 8 7 7 5 3 3 3 3 4 4 6 8 9 10 11 12
23 21 20 19 18 16 14 13 10 8 7 8 8 7 7 7 8 8 9 10 10 11 11 12 13 12 12 12 11 11 11 10 9 8 7 6 6 5 5 4 5 5 6 6 7 8 10 12 13
25 23 22 21 20 19 17 16 12 11 9 9 8 8 7 7 7 7 7 9 9 10 10 10 11 12 12 12 11 11 11 10 9 8 8 6 7 6 6 6 6 6 7 7 8 9 10 11 12
26 25 25 24 23 21 19 19 15 13 12 10 9 8 7 7 7 7 7 8 9 9 9 9 10 10 11 11 11 11 10 10 10 9 8 7 7 8 8 8 7 7 8 9 9 10 10 11 12
27 27 27 26 25 22 22 22 18 16 14 12 11 10 9 8 7 7 8 8 8 8 8 9 10 10 10 10 11 11 10 10 9 10 9 9 8 9 9 10 9 9 10 10 10 10 10 11 12
30 29 28 28 27 26 25 24 21 18 16 14 13 11 10 10 9 8 8 8 8 8 8 9 9 9 10 10 11 11 11 10 10 10 10 10 10 10 11 11 11 11 11 12 11 11 11 12 12
32 30 30 30 30 29 27 26 24 21 19 17 15 13 12 11 11 10 9 9 8 8 9 10 10 10 10 10 11 11 11 11 10 10 11 12 11 11 11 12 12 12 12 12 13 12 12 13 14
34 33 33 32 32 30 29 26 23 21 21 18 17 15 14 13 12 12 11 9 8 9 9 10 11 11 10 10 11 11 11 11 12 12 11 12 12 11 12 12 13 13 12 13 14 14 14 15 15
36 36 35 34 32 31 31 28 24 23 21 19 18 17 16 15 14 13 13 11 11 11 11 12 13 13 12 11 11 13 13 13 14 14 13 13 13 12 13 13 13 13 13 13 15 15 16 16 16
Wind_Direction
60 58 58 56 55 53 52 53 52 51 49 48 47 47 47 49 51 54 57 59 59 71 98 116 102 93 93 100 101 105 106 102 114 121 122 123 127 131 135 139 136 129 116 101 106 100 94 94 95
59 57 56 57 56 53 52 52 49 46 45 44 45 47 47 49 48 48 55 57 57 62 83 110 102 101 99 99 98 103 108 102 110 125 135 140 142 146 147 156 149 145 130 115 116 114 102 102 103
60 57 57 59 57 55 53 52 49 45 43 43 46 47 47 48 50 52 55 54 57 64 76 93 101 105 99 96 99 104 107 105 110 125 137 147 145 147 145 153 158 156 149 131 121 126 113 108 105
59 57 58 59 57 56 54 52 49 45 42 44 46 46 45 46 49 50 54 55 55 63 73 84 95 105 107 104 105 106 104 106 118 126 128 137 138 143 145 141 148 151 151 149 145 145 146 132 106
61 59 58 58 57 55 54 53 49 46 42 42 45 46 44 44 48 52 54 52 54 60 67 79 90 94 103 107 108 114 110 105 108 124 130 135 146 159 157 142 150 163 167 165 179 188 188 182 151
64 62 59 57 55 54 53 51 49 45 41 40 41 43 45 45 47 52 55 55 57 65 69 77 87 90 92 100 114 117 114 109 104 109 115 128 143 150 143 148 161 169 200 203 203 195 192 189 185
62 62 59 57 55 52 50 49 47 44 40 38 39 42 45 43 44 47 51 52 55 63 71 79 82 87 92 97 119 126 125 120 118 112 110 107 121 136 157 171 185 194 228 229 218 202 206 195 188
64 62 60 58 55 51 50 49 47 44 41 39 40 42 44 43 42 45 48 51 53 58 66 73 76 81 88 97 117 139 149 139 134 132 119 113 121 133 168 189 201 212 228 242 227 217 203 185 185
65 62 59 57 55 52 50 49 47 44 42 41 41 42 44 44 41 42 46 49 52 54 58 61 64 73 84 93 110 137 149 150 147 147 139 124 123 144 159 168 186 197 216 237 217 196 198 187 186
66 61 60 59 58 54 51 49 47 44 41 41 41 42 43 43 41 41 44 47 50 53 54 55 63 65 68 76 101 128 138 145 152 145 149 150 144 148 162 169 173 186 204 226 199 189 187 191 188
65 61 61 62 61 56 53 49 47 45 42 40 40 42 41 40 40 41 44 47 50 52 53 54 59 60 63 72 84 112 126 140 151 143 144 148 150 163 173 177 187 193 210 214 207 198 192 200 203
67 63 63 63 63 59 55 50 47 44 42 40 38 40 41 41 40 41 44 46 46 49 52 53 56 54 54 61 73 95 125 146 163 161 166 164 169 180 197 203 203 211 220 216 215 202 198 211 214
74 67 65 66 65 61 56 51 46 43 42 40 37 36 39 40 40 42 45 45 46 49 49 50 51 50 48 48 52 64 99 163 187 193 201 205 216 227 227 220 221 219 222 225 224 218 215 229 228
81 71 67 69 66 63 59 51 45 42 41 37 36 36 36 37 39 41 43 44 47 49 49 48 47 47 48 48 49 55 65 107 185 210 224 229 228 227 228 231 224 219 223 228 227 227 230 240 242
108 81 71 69 65 62 59 51 43 40 40 37 34 34 34 35 36 38 39 41 43 44 45 46 46 47 50 51 48 47 56 67 87 199 213 223 237 237 230 233 234 227 228 234 234 233 240 246 245
173 122 81 66 61 56 55 52 44 39 38 35 32 31 30 32 33 36 38 39 40 40 42 43 44 45 47 47 45 45 47 49 47 53 235 240 245 248 246 240 240 239 245 248 245 246 249 247 247
211 194 157 80 55 52 56 54 46 38 36 33 30 28 28 29 31 34 36 37 37 38 40 41 41 42 43 41 41 42 38 36 28 23 334 257 247 247 251 249 244 246 252 257 257 255 254 252 255
221 221 221 229 328 28 38 47 44 37 32 30 26 25 26 27 31 33 34 35 36 37 38 38 39 40 39 38 37 36 33 30 22 10 10 315 258 249 249 252 246 246 250 254 261 265 257 254 258
227 227 228 235 259 286 336 22 35 29 27 25 20 19 21 23 28 31 32 32 33 33 34 35 35 35 36 35 34 32 30 27 19 8 349 343 310 278 253 249 246 248 252 256 263 267 261 260 259
231 231 232 238 250 263 270 304 344 2 11 12 10 12 16 19 22 25 27 27 28 29 29 30 30 31 31 31 31 30 30 26 19 14 2 350 339 343 321 271 257 254 255 259 264 265 263 267 267
232 234 234 238 244 256 264 272 291 320 344 354 359 2 6 11 12 15 20 22 24 25 25 25 27 29 27 26 28 30 29 27 23 19 17 16 8 17 1 328 299 273 265 264 266 268 270 270 269
232 236 237 239 241 247 260 264 272 286 309 327 338 346 353 356 358 2 11 17 19 20 21 22 23 25 25 25 26 28 29 29 28 27 25 27 29 21 6 341 322 307 295 283 274 271 272 271 270
232 236 241 242 244 247 253 262 263 273 290 307 315 324 336 340 344 352 360 6 11 14 15 16 17 20 22 24 24 24 26 27 26 24 20 22 24 17 2 343 335 319 308 301 294 287 280 274 271
233 236 241 245 247 248 250 255 260 268 278 290 297 305 316 327 334 342 347 353 358 3 5 7 10 13 16 18 19 19 22 22 21 20 18 16 7 360 352 346 338 331 322 311 304 301 294 284 278
233 236 241 245 248 248 248 251 256 263 267 276 284 292 306 313 324 335 337 336 340 349 351 354 1 4 7 9 13 17 17 16 17 13 9 4 357 350 341 335 332 330 330 322 313 309 305 297 288
234 237 242 247 249 247 248 251 253 256 260 266 273 283 291 295 308 320 327 327 332 335 337 341 346 351 357 359 2 7 8 7 7 6 1 353 345 340 339 337 333 332 330 326 319 315 310 303 296
233 236 242 248 251 249 248 251 250 253 255 260 266 272 281 289 295 310 323 323 325 324 328 334 336 338 345 347 349 353 357 356 355 352 352 349 342 337 333 331 330 326 325 323 320 315 308 305 301
233 236 240 245 251 252 251 249 249 250 254 256 261 263 269 281 285 293 302 309 311 315 321 326 327 329 334 338 340 341 342 342 342 341 341 342 338 332 330 327 324 321 319 320 318 314 310 306 302
233 235 239 244 250 253 254 252 252 253 254 256 257 257 263 274 282 288 293 298 301 308 313 319 320 321 323 326 329 331 329 329 330 330 333 336 335 328 327 325 320 318 316 316 317 312 311 309 306
234 237 239 243 248 251 254 255 253 253 254 254 253 254 259 265 274 282 285 289 293 300 303 307 310 314 318 319 321 324 324 321 324 323 321 325 331 329 326 324 317 314 315 316 317 317 313 310 308
Height
5897 5896 5894 5894 5892 5890 5888 5886 5885 5884 5883 5882 5881 5880 5880 5879 5880 5882 5879 5878 5878 5878 5878 5878 5878 5878 5878 5879 5880 5880 5881 5882 5883 5884 5886 5887 5888 5889 5890 5891 5892 5893 5894 5894 5894 5895 5895 5896 5896
5900 5899 5898 5897 5894 5892 5890 5888 5887 5886 5885 5884 5882 5881 5881 5880 5880 5880 5879 5878 5879 5878 5878 5878 5878 5878 5879 5880 5880 5880 5881 5882 5884 5885 5886 5887 5889 5890 5891 5892 5893 5894 5894 5895 5895 5896 5896 5896 5897
5903 5902 5902 5899 5896 5894 5893 5891 5889 5888 5887 5885 5884 5883 5883 5882 5881 5880 5880 5880 5879 5879 5879 5879 5879 5879 5879 5880 5880 5881 5882 5883 5884 5885 5886 5888 5889 5890 5891 5892 5893 5894 5895 5895 5896 5896 5897 5897 5897
5907 5906 5904 5902 5899 5898 5895 5894 5892 5890 5889 5887 5886 5885 5884 5883 5883 5882 5881 5881 5880 5880 5880 5879 5879 5880 5880 5880 5881 5882 5882 5883 5885 5886 5887 5888 5889 5890 5891 5892 5893 5894 5895 5895 5896 5897 5897 5897 5897
5910 5909 5907 5904 5902 5901 5898 5896 5894 5893 5891 5890 5889 5888 5886 5885 5884 5883 5882 5882 5881 5881 5880 5880 5880 5880 5881 5881 5881 5882 5883 5884 5885 5886 5887 5888 5889 5890 5891 5892 5893 5894 5895 5896 5896 5897 5897 5897 5898
5913 5911 5909 5907 5905 5903 5901 5899 5897 5895 5894 5893 5892 5890 5889 5888 5886 5885 5884 5883 5882 5882 5881 5881 5881 5881 5881 5882 5882 5882 5883 5884 5885 5886 5887 5888 5889 5890 5891 5892 5893 5894 5895 5895 5896 5896 5897 5897 5898
5915 5913 5911 5910 5908 5906 5904 5902 5900 5898 5897 5896 5894 5893 5891 5890 5889 5887 5886 5885 5884 5883 5882 5882 5881 5882 5882 5882 5883 5883 5884 5885 5886 5886 5887 5888 5889 5890 5891 5892 5893 5894 5894 5895 5896 5896 5897 5897 5898
5917 5916 5914 5912 5910 5909 5907 5905 5903 5901 5900 5899 5897 5895 5893 5893 5891 5889 5888 5887 5885 5884 5883 5883 5883 5882 5883 5883 5883 5884 5885 5885 5886 5887 5888 5888 5889 5890 5891 5892 5893 5893 5894 5895 5895 5896 5897 5898 5898
5919 5919 5916 5915 5913 5912 5910 5908 5907 5905 5903 5902 5900 5898 5897 5895 5893 5891 5890 5888 5887 5886 5885 5884 5884 5884 5883 5884 5884 5884 5885 5886 5887 5887 5888 5889 5889 5890 5890 5892 5893 5893 5894 5895 5895 5896 5897 5898 5898
5921 5920 5919 5918 5916 5915 5913 5911 5910 5909 5907 5905 5903 5901 5899 5897 5896 5894 5892 5890 5888 5887 5886 5885 5885 5885 5884 5884 5884 5885 5885 5886 5887 5888 5888 5889 5890 5890 5891 5892 5893 5893 5894 5895 5895 5896 5897 5897 5898
5923 5923 5922 5920 5919 5918 5916 5915 5913 5912 5910 5908 5906 5904 5902 5900 5898 5896 5894 5892 5890 5889 5888 5887 5886 5886 5885 5885 5885 5885 5886 5886 5887 5888 5889 5889 5890 5890 5891 5892 5893 5893 5894 5894 5895 5896 5897 5897 5898
5925 5925 5924 5923 5921 5920 5919 5918 5917 5915 5914 5911 5909 5907 5905 5903 5900 5898 5896 5894 5892 5891 5890 5889 5888 5887 5886 5886 5886 5886 5886 5887 5887 5888 5889 5889 5890 5890 5891 5892 5892 5893 5894 5894 5895 5896 5897 5897 5898
5927 5927 5926 5925 5924 5923 5921 5920 5919 5918 5917 5914 5912 5910 5908 5905 5903 5901 5899 5897 5895 5893 5892 5891 5889 5888 5888 5887 5886 5886 5886 5887 5887 5888 5888 5889 5890 5890 5891 5891 5892 5893 5893 5894 5895 5896 5896 5897 5897
5928 5927 5927 5926 5925 5924 5923 5923 5922 5921 5919 5918 5915 5913 5911 5908 5906 5903 5901 5899 5897 5896 5894 5893 5891 5890 5889 5888 5887 5887 5887 5887 5887 5888 5888 5889 5889 5890 5890 5891 5891 5892 5893 5894 5894 5895 5896 5896 5897
5928 5928 5928 5927 5926 5926 5925 5925 5924 5923 5921 5920 5918 5916 5914 5911 5909 5906 5904 5902 5900 5898 5897 5895 5893 5892 5891 5890 5889 5888 5888 5887 5887 5888 5888 5888 5889 5890 5890 5891 5891 5891 5892 5893 5894 5894 5895 5896 5896
5929 5929 5928 5928 5927 5927 5928 5927 5926 5925 5923 5922 5920 5918 5916 5914 5912 5909 5907 5905 5903 5901 5899 5897 5895 5894 5892 5891 5890 5889 5889 5888 5888 5888 5887 5888 5888 5889 5889 5890 5890 5891 5891 5892 5893 5894 5894 5895 5896
5928 5928 5928 5929 5928 5928 5928 5927 5927 5926 5925 5924 5922 5921 5918 5916 5914 5912 5910 5908 5906 5904 5901 5900 5898 5896 5894 5893 5892 5891 5890 5889 5888 5887 5887 5887 5887 5888 5888 5889 5889 5890 5891 5891 5892 5893 5893 5894 5895
5927 5928 5928 5928 5928 5928 5928 5928 5928 5927 5926 5925 5924 5922 5920 5918 5916 5914 5912 5910 5908 5906 5904 5902 5900 5898 5896 5895 5893 5892 5891 5890 5889 5888 5887 5887 5887 5887 5887 5888 5888 5889 5889 5890 5891 5891 5892 5893 5893
5926 5927 5928 5928 5928 5928 5928 5928 5928 5927 5927 5926 5925 5923 5922 5920 5918 5916 5914 5912 5910 5908 5906 5904 5902 5900 5898 5896 5895 5893 5892 5890 5889 5888 5887 5887 5887 5887 5886 5887 5887 5888 5888 5889 5890 5890 5890 5891 5891
5924 5925 5926 5927 5927 5927 5927 5928 5928 5927 5927 5927 5926 5924 5923 5921 5919 5918 5916 5914 5911 5909 5907 5905 5903 5901 5899 5897 5896 5894 5892 5891 5890 5888 5888 5887 5887 5887 5886 5886 5887 5887 5887 5888 5888 5888 5889 5889 5889
5922 5923 5924 5925 5925 5925 5926 5927 5927 5927 5927 5927 5926 5925 5923 5922 5920 5919 5917 5915 5913 5911 5909 5907 5904 5902 5901 5899 5897 5895 5893 5892 5891 5889 5888 5887 5887 5887 5887 5887 5886 5886 5886 5886 5887 5887 5887 5887 5887
5919 5921 5922 5923 5923 5924 5925 5926 5927 5926 5927 5926 5926 5925 5923 5922 5920 5919 5917 5915 5914 5912 5910 5908 5906 5904 5902 5900 5898 5896 5895 5893 5892 5890 5889 5888 5887 5887 5887 5887 5886 5886 5885 5885 5885 5885 5885 5885 5885
5916 5917 5918 5920 5921 5922 5923 5923 5925 5925 5926 5926 5925 5924 5923 5922 5920 5919 5917 5916 5914 5913 5911 5909 5907 5905 5903 5901 5899 5898 5896 5894 5893 5892 5890 5889 5888 5888 5887 5886 5886 5885 5884 5884 5883 5883 5882 5882 5882
5912 5914 5915 5916 5917 5919 5920 5921 5923 5923 5924 5924 5924 5923 5922 5921 5920 5918 5917 5916 5914 5913 5911 5910 5908 5906 5904 5902 5900 5898 5897 5895 5894 5893 5891 5890 5889 5888 5887 5886 5885 5884 5883 5883 5882 5881 5880 5879 5878
5908 5910 5911 5912 5913 5915 5917 5917 5920 5921 5921 5921 5921 5921 5921 5920 5919 5918 5916 5915 5914 5913 5911 5910 5908 5907 5904 5902 5901 5899 5897 5896 5895 5893 5892 5890 5889 5888 5887 5885 5884 5883 5882 5881 5880 5878 5877 5876 5876
5903 5906 5908 5909 5910 5912 5913 5914 5917 5918 5918 5919 5919 5919 5919 5918 5918 5917 5915 5914 5913 5912 5911 5910 5908 5907 5905 5903 5901 5899 5898 5896 5895 5893 5892 5890 5889 5887 5886 5885 5883 5882 5880 5879 5877 5876 5875 5874 5873
5898 5900 5902 5904 5905 5907 5908 5910 5913 5914 5916 5916 5916 5917 5916 5916 5916 5915 5914 5913 5912 5910 5909 5909 5907 5906 5904 5903 5901 5900 5898 5896 5894 5893 5891 5890 5888 5887 5885 5884 5882 5881 5879 5877 5875 5874 5872 5871 5870
5892 5895 5897 5898 5900 5901 5903 5905 5909 5911 5912 5913 5914 5914 5914 5913 5913 5913 5912 5911 5910 5909 5908 5908 5907 5905 5904 5902 5900 5899 5897 5895 5893 5892 5890 5888 5887 5885 5884 5882 5880 5879 5877 5876 5874 5872 5870 5869 5867
5886 5889 5891 5893 5895 5897 5898 5902 5904 5906 5907 5909 5910 5911 5911 5911 5911 5910 5910 5909 5908 5907 5907 5906 5905 5904 5902 5900 5899 5897 5895 5894 5892 5890 5888 5887 5885 5883 5881 5880 5878 5877 5875 5873 5871 5869 5867 5865 5864
5880 5882 5885 5888 5889 5891 5893 5898 5899 5901 5903 5904 5905 5906 5907 5907 5908 5907 5907 5906 5906 5905 5904 5904 5903 5901 5900 5898 5897 5896 5894 5892 5890 5888 5886 5884 5882 5881 5879 5877 5875 5873 5872 5870 5868 5866 5864 5862 5860